Wind_Speed
47 44 45 52 51 51 47 45 46 43 41 38 37 35 36 35 31 30 27 27 27 26 26 27 24 25 27 24 26 26 26 32 29 29 35 34 31 30 31 34 35 35 34
46 42 42 47 49 47 46 45 47 44 41 39 39 37 38 35 34 32 28 28 27 26 27 27 26 26 27 29 28 29 15 27 33 32 33 32 26 29 33 34 33 33 34
51 42 43 45 44 40 43 49 46 44 41 40 40 40 40 36 34 34 31 29 27 26 27 26 27 28 28 28 30 28 23 24 24 32 32 29 26 26 25 27 28 28 28
40 37 36 35 38 41 41 41 43 42 41 40 40 41 43 38 39 36 32 29 27 27 26 24 25 24 21 27 30 28 26 29 26 21 26 29 29 27 25 26 25 21 22
35 35 36 36 38 38 39 42 41 41 40 41 43 44 46 41 40 37 34 29 27 28 26 25 24 22 21 21 28 29 31 28 30 28 23 24 27 29 27 28 26 24 25
34 34 34 36 39 41 41 43 42 43 43 44 44 46 46 42 42 40 35 29 28 28 27 25 25 21 21 19 28 30 32 33 32 32 34 29 31 29 29 28 29 29 32
38 35 38 40 41 42 41 41 41 40 41 42 43 45 45 44 44 40 36 30 29 30 28 25 27 23 22 21 17 25 36 33 35 37 39 29 23 22 29 33 32 32 33
32 35 39 40 42 42 41 41 40 41 41 42 44 46 48 48 46 41 36 31 30 31 28 25 25 23 23 22 20 17 18 27 24 24 25 23 19 21 23 26 31 34 36
32 34 36 39 41 41 42 44 48 48 48 48 53 52 51 49 46 40 36 32 31 32 29 27 24 23 24 24 22 21 20 19 19 19 21 23 27 30 31 32 34 36 37
36 37 39 39 41 43 45 47 46 45 48 53 53 59 51 49 43 40 35 33 34 34 32 30 25 24 24 23 22 22 24 25 26 27 28 30 31 31 32 34 35 37 38
39 38 42 43 41 42 38 35 29 33 40 38 44 49 46 45 44 36 38 37 38 36 35 34 32 29 29 29 27 27 27 28 28 29 31 32 33 34 36 38 40 42 43
34 32 35 36 33 34 28 25 28 30 36 35 42 38 37 43 40 39 38 41 39 40 38 38 37 36 35 35 33 33 33 34 36 36 37 38 40 42 43 43 43 43 46
27 25 25 27 29 27 30 29 32 30 34 36 38 38 41 43 40 38 42 42 42 42 41 41 41 40 39 38 37 37 40 41 42 43 40 40 41 41 43 43 44 46 50
24 21 24 21 27 33 33 30 29 30 33 42 30 32 40 43 46 49 43 42 46 48 43 41 42 41 40 38 42 43 46 46 45 42 42 45 46 45 44 46 49 53 54
28 19 17 19 12 19 34 37 35 35 37 38 39 41 48 45 43 46 46 43 51 53 46 43 45 44 41 43 48 50 49 41 37 41 42 42 44 46 49 51 51 53 55
18 16 14 7 4 11 20 34 33 41 42 45 46 49 42 41 45 49 52 50 36 36 30 36 47 44 42 33 36 34 41 41 44 48 48 49 53 51 49 47 48 51 51
12 9 5 7 7 9 16 29 33 40 43 42 38 44 47 41 39 42 43 51 47 44 45 44 44 42 37 35 40 47 50 46 44 43 43 43 44 44 46 47 48 48 50
14 15 12 5 1 3 8 20 25 28 31 32 33 35 39 38 39 38 38 52 48 44 56 48 40 38 42 46 44 46 44 43 42 41 42 42 44 45 46 47 49 52 54
12 12 15 15 11 7 4 7 13 17 23 27 28 32 35 38 34 34 38 55 48 46 42 43 39 39 40 39 38 38 39 40 40 38 39 42 44 46 49 51 54 57 59
17 15 13 12 14 15 15 12 9 6 11 15 18 19 21 24 24 24 27 28 29 29 31 34 35 35 37 38 36 33 33 35 39 42 43 46 48 50 53 56 58 59 61
19 18 16 15 15 16 15 16 16 16 15 15 15 15 14 15 16 16 17 18 19 22 24 25 26 27 29 31 34 36 38 41 44 47 48 51 54 56 57 59 61 63 64
25 24 23 22 21 20 19 19 19 20 20 20 20 21 21 22 22 22 22 23 25 27 28 30 32 34 36 38 40 43 45 48 51 53 55 56 58 59 61 63 65 67 68
32 32 31 29 28 28 27 26 26 26 26 27 28 28 28 29 30 32 33 34 34 36 37 38 40 42 44 46 48 50 52 53 55 57 58 59 61 63 65 67 68 68 69
39 38 37 36 34 33 33 32 33 35 36 36 37 37 37 36 36 37 39 40 42 43 44 46 47 48 50 51 52 53 54 55 57 59 61 63 65 67 68 69 69 68 69
46 45 44 43 42 41 39 39 39 39 39 39 40 41 43 43 42 42 43 45 46 46 48 49 49 50 51 52 53 55 57 59 60 63 65 66 66 68 69 68 67 67 69
50 51 51 50 50 49 49 49 47 46 46 46 45 46 46 47 47 47 47 48 49 50 51 52 54 55 55 56 57 59 61 64 65 65 65 65 66 65 66 66 68 70 71
Wind_Direction
251 248 247 245 250 247 249 250 250 254 251 250 245 249 253 252 250 244 248 254 264 269 277 280 289 279 259 259 259 269 264 242 228 240 242 235 230 232 235 232 237 247 253
258 259 252 248 246 248 245 245 249 251 249 248 248 248 251 249 252 248 244 251 260 264 274 276 284 284 268 257 254 261 257 250 235 239 240 232 228 239 238 240 244 247 248
256 254 250 245 243 244 239 239 247 250 248 247 248 249 249 247 248 250 246 248 257 261 271 270 278 286 269 256 259 259 274 283 245 241 231 217 230 241 240 244 245 248 247
251 251 250 250 246 243 241 241 244 247 247 245 245 246 250 246 248 247 243 246 253 256 264 267 276 278 273 259 257 260 257 269 277 281 232 221 230 238 242 248 250 249 252
258 257 254 251 250 247 241 242 245 247 248 248 247 245 248 247 247 246 238 242 252 253 261 260 269 276 279 265 256 259 250 253 263 272 259 244 243 247 247 250 252 254 251
256 253 254 253 250 250 250 248 247 250 252 249 249 246 248 246 246 244 236 238 249 252 257 256 258 266 267 283 247 253 247 246 251 251 262 260 247 246 250 253 252 253 255
255 257 256 256 255 256 251 248 246 247 247 247 247 246 248 246 245 243 236 237 247 249 254 254 252 258 266 260 266 262 245 249 247 252 255 254 248 252 254 252 255 256 258
257 254 253 252 252 252 250 249 247 246 246 247 245 243 244 243 242 236 232 236 243 246 249 251 248 253 258 260 256 272 258 239 241 244 237 236 250 246 247 249 252 256 262
270 266 257 255 255 254 253 252 252 250 246 243 241 243 240 237 239 233 232 234 242 242 244 247 245 252 255 255 251 250 252 256 259 249 245 243 245 249 251 251 255 259 263
279 276 270 265 263 260 256 257 253 248 242 238 220 236 234 235 236 231 234 233 243 238 239 243 244 246 250 256 255 253 249 248 248 247 247 248 249 251 254 256 258 263 268
280 279 275 271 269 263 257 247 236 240 238 220 234 239 232 228 230 227 234 234 246 239 239 242 243 242 249 254 254 257 262 261 258 257 257 257 259 260 261 263 265 266 268
283 276 273 273 256 253 237 225 231 229 223 238 232 223 215 225 226 228 235 240 251 238 240 244 247 247 248 254 258 260 261 256 256 258 258 258 259 259 259 261 263 264 268
291 285 284 277 250 230 210 215 225 225 227 237 228 218 221 222 225 230 238 243 252 243 240 246 250 251 254 255 258 258 270 262 259 260 256 255 257 261 261 259 261 266 270
311 306 293 270 235 220 228 215 218 227 223 224 234 235 228 226 227 233 239 241 252 246 241 248 253 258 256 257 255 256 266 268 263 254 256 257 258 259 261 262 263 268 271
314 311 307 283 268 231 224 212 220 224 217 219 217 230 232 234 242 243 247 249 257 247 235 244 253 255 263 268 265 265 269 260 257 255 256 258 259 261 268 275 276 275 276
296 309 300 255 233 249 221 212 217 221 227 223 230 224 235 250 252 253 247 254 248 245 234 225 257 265 256 250 249 249 252 259 258 262 262 265 269 272 275 278 278 278 279
301 294 304 292 197 145 189 210 212 215 223 221 231 227 228 244 247 234 241 239 232 234 246 255 264 250 247 240 248 253 255 262 265 261 264 270 275 278 278 276 276 279 281
313 316 320 267 257 253 181 178 174 186 192 200 218 223 232 232 227 225 218 217 225 241 246 251 240 235 233 239 251 258 262 264 267 270 273 276 278 277 277 279 283 284 285
289 297 308 321 314 271 224 187 195 195 194 196 198 207 215 205 206 211 230 226 226 236 240 245 252 252 256 260 263 262 264 267 272 275 276 275 276 278 280 282 282 283 284
286 283 286 294 303 310 311 304 298 255 214 202 205 212 219 222 220 219 225 229 233 240 246 248 252 254 259 263 269 273 275 274 274 273 273 275 277 279 280 280 282 284 285
276 282 283 282 278 279 286 295 298 301 302 302 300 297 285 271 268 267 261 258 262 263 267 272 269 266 266 267 270 272 272 272 273 276 278 279 280 281 282 283 284 284 286
274 272 272 277 276 277 276 272 272 274 277 277 273 270 271 273 274 273 271 268 267 266 265 266 268 269 270 269 271 273 275 277 278 279 280 281 282 283 284 284 285 286 287
271 273 273 275 277 276 275 275 273 272 270 269 268 267 265 265 264 264 265 264 266 267 267 267 268 269 271 272 273 274 276 278 280 281 282 283 284 284 286 287 287 287 288
270 269 269 271 272 272 272 273 275 274 273 274 275 273 270 269 270 270 269 268 267 266 267 267 268 269 270 272 274 277 279 280 281 282 284 284 285 285 286 287 288 290 290
271 271 271 271 272 274 272 272 272 272 272 273 273 273 274 272 271 270 270 270 270 270 271 271 272 273 274 275 277 278 278 280 282 283 284 285 286 287 287 288 288 289 289
270 270 271 273 273 273 274 274 273 271 270 270 270 270 271 271 271 270 269 269 269 269 269 269 271 272 275 277 278 279 280 281 283 285 285 286 286 286 288 288 288 289 290
Height
5647 5651 5655 5657 5659 5664 5670 5673 5674 5676 5681 5683 5685 5688 5690 5691 5692 5693 5694 5695 5696 5696 5696 5695 5693 5692 5692 5692 5692 5693 5692 5692 5694 5695 5697 5699 5702 5703 5704 5706 5708 5710 5711
5636 5637 5641 5645 5648 5653 5657 5660 5662 5665 5669 5673 5675 5677 5679 5682 5684 5685 5686 5687 5688 5688 5688 5687 5686 5684 5684 5686 5686 5686 5685 5686 5687 5688 5690 5693 5695 5696 5698 5700 5701 5703 5705
5626 5626 5631 5634 5637 5641 5644 5647 5651 5655 5658 5662 5665 5668 5669 5672 5674 5676 5678 5678 5679 5681 5681 5680 5678 5677 5676 5677 5678 5679 5680 5680 5681 5681 5684 5687 5688 5690 5691 5693 5695 5696 5698
5616 5618 5621 5623 5626 5629 5632 5636 5640 5643 5646 5652 5654 5657 5659 5663 5665 5666 5668 5669 5671 5673 5674 5673 5672 5671 5668 5669 5670 5673 5674 5674 5675 5676 5678 5680 5681 5683 5684 5686 5688 5689 5691
5607 5609 5610 5612 5615 5618 5621 5626 5629 5632 5636 5640 5644 5646 5648 5652 5655 5657 5658 5660 5663 5665 5666 5666 5666 5664 5663 5661 5662 5665 5666 5667 5669 5670 5672 5674 5675 5677 5679 5681 5682 5683 5685
5600 5600 5600 5602 5605 5607 5611 5614 5617 5621 5625 5628 5631 5634 5637 5641 5644 5647 5649 5651 5654 5657 5658 5658 5659 5658 5657 5657 5656 5658 5659 5661 5663 5665 5667 5668 5669 5671 5673 5674 5675 5676 5677
5591 5590 5591 5592 5594 5596 5600 5604 5606 5610 5614 5616 5620 5622 5626 5629 5633 5637 5640 5642 5646 5648 5649 5650 5651 5651 5651 5652 5651 5650 5652 5654 5656 5658 5660 5661 5662 5664 5665 5666 5668 5669 5670
5581 5581 5583 5584 5585 5587 5590 5593 5595 5598 5602 5605 5607 5611 5614 5617 5622 5626 5630 5633 5636 5639 5641 5642 5643 5644 5645 5645 5646 5646 5645 5647 5648 5650 5652 5655 5656 5657 5659 5660 5661 5661 5661
5572 5572 5572 5574 5573 5575 5577 5580 5582 5586 5589 5592 5596 5599 5603 5606 5612 5616 5620 5624 5627 5631 5633 5634 5635 5637 5639 5639 5640 5640 5641 5642 5643 5645 5647 5649 5650 5652 5652 5653 5654 5653 5653
5560 5560 5559 5559 5559 5561 5563 5565 5567 5568 5573 5578 5583 5585 5591 5597 5602 5606 5611 5615 5618 5622 5624 5626 5628 5630 5632 5634 5634 5635 5636 5637 5638 5639 5641 5642 5643 5644 5644 5644 5645 5644 5643
5549 5547 5545 5545 5545 5545 5548 5550 5553 5557 5560 5562 5569 5572 5579 5587 5592 5597 5602 5605 5609 5612 5615 5617 5619 5622 5625 5627 5628 5629 5630 5631 5632 5633 5634 5635 5635 5636 5636 5636 5636 5635 5633
5538 5536 5533 5532 5532 5532 5534 5538 5545 5547 5547 5553 5559 5559 5569 5576 5582 5587 5592 5596 5600 5602 5605 5607 5610 5613 5616 5618 5620 5622 5623 5624 5625 5625 5626 5626 5626 5626 5627 5626 5625 5624 5622
5529 5526 5524 5521 5522 5522 5525 5531 5536 5539 5545 5548 5553 5557 5562 5568 5573 5578 5583 5587 5590 5592 5595 5597 5599 5602 5605 5608 5610 5612 5613 5614 5614 5614 5614 5614 5615 5615 5614 5613 5613 5611 5609
5524 5519 5515 5512 5511 5514 5518 5524 5528 5531 5537 5541 5547 5551 5556 5560 5563 5569 5573 5575 5578 5580 5583 5587 5590 5593 5595 5597 5599 5601 5602 5602 5601 5601 5602 5602 5601 5601 5600 5600 5599 5597 5595
5521 5516 5511 5508 5505 5507 5510 5516 5520 5527 5533 5535 5540 5544 5548 5552 5556 5558 5562 5565 5566 5568 5571 5575 5578 5582 5584 5586 5587 5589 5589 5588 5588 5589 5589 5589 5589 5588 5587 5586 5584 5582 5580
5517 5513 5511 5508 5504 5502 5503 5507 5514 5519 5524 5527 5531 5535 5538 5543 5547 5549 5552 5553 5556 5561 5563 5566 5569 5571 5574 5574 5577 5577 5576 5577 5577 5578 5578 5576 5575 5573 5572 5570 5568 5566 5564
5512 5511 5509 5506 5504 5502 5501 5501 5505 5511 5515 5519 5522 5525 5530 5533 5534 5539 5541 5545 5550 5551 5555 5555 5556 5556 5559 5561 5561 5562 5563 5563 5563 5564 5563 5562 5562 5560 5559 5557 5554 5551 5548
5510 5508 5505 5505 5503 5501 5501 5501 5500 5502 5506 5507 5512 5516 5519 5522 5525 5529 5531 5533 5536 5538 5542 5545 5544 5544 5545 5546 5546 5548 5548 5549 5549 5550 5549 5549 5549 5548 5546 5543 5540 5536 5534
5507 5506 5505 5501 5500 5500 5499 5499 5499 5500 5501 5503 5504 5507 5510 5513 5515 5517 5519 5521 5522 5527 5529 5531 5532 5532 5533 5534 5534 5535 5536 5537 5537 5536 5536 5536 5535 5533 5531 5528 5525 5521 5518
5502 5501 5500 5499 5498 5497 5496 5495 5494 5495 5496 5497 5499 5501 5503 5506 5505 5505 5508 5512 5514 5515 5516 5517 5518 5519 5520 5522 5523 5523 5524 5525 5525 5524 5523 5521 5520 5517 5515 5512 5509 5505 5500
5497 5495 5495 5494 5494 5494 5493 5491 5491 5491 5491 5490 5490 5491 5491 5493 5495 5497 5498 5499 5500 5502 5504 5506 5507 5508 5509 5510 5511 5512 5512 5512 5511 5509 5508 5506 5504 5501 5498 5495 5491 5487 5483
5490 5489 5488 5488 5487 5487 5487 5487 5487 5487 5487 5488 5487 5488 5489 5489 5490 5492 5492 5493 5495 5496 5497 5498 5498 5498 5499 5499 5499 5499 5499 5498 5496 5494 5492 5489 5486 5483 5480 5477 5473 5469 5464
5482 5481 5480 5479 5479 5479 5479 5478 5478 5478 5479 5480 5481 5481 5482 5482 5483 5484 5485 5485 5485 5485 5485 5484 5485 5486 5486 5485 5485 5485 5483 5481 5480 5477 5474 5471 5468 5466 5462 5458 5453 5448 5443
5470 5470 5470 5470 5470 5470 5470 5470 5469 5469 5469 5469 5470 5471 5471 5471 5472 5472 5472 5472 5473 5473 5473 5473 5472 5471 5471 5470 5470 5469 5466 5464 5462 5459 5457 5454 5450 5446 5442 5439 5434 5428 5422
5457 5457 5458 5457 5457 5457 5458 5458 5458 5458 5458 5459 5459 5458 5458 5459 5458 5458 5458 5458 5458 5458 5459 5458 5457 5456 5455 5453 5452 5451 5449 5446 5443 5441 5438 5434 5430 5427 5423 5417 5412 5408 5402
5442 5442 5442 5442 5442 5442 5443 5443 5443 5444 5444 5445 5445 5445 5444 5444 5444 5444 5444 5443 5443 5443 5443 5441 5440 5439 5437 5436 5435 5433 5430 5427 5424 5421 5417 5413 5410 5406 5401 5396 5392 5387 5382